Regional Weather Roundup
Issued by NWS

Home | Current Version | Previous Version | Graphics & Text | Print | Product List | Glossary On
Versions: 1 2 3 4 5 6 7 8 9 10 11 12 13 14 15 16 17 18 19 20 21 22 23 24 25 26 27 28 29 30 31 32 33 34 35 36 37 38 39 40 41 42 43 44 45 46 47 48 49 50
000
ASUS45 KABQ 100410
RWRNM
WEATHER ROUNDUP FOR NEW MEXICO
NATIONAL WEATHER SERVICE ALBUQUERQUE NM
1000 PM MDT WED JUL 09 2014

NOTE: "FAIR" MEANS FEW OR NO CLOUDS BELOW 12,000 FEET AGL WITH NO
       SIGNIFICANT WEATHER OR OBSTRUCTIONS TO VISION.

      THIS PRODUCT IS RELEASED AS TWO VERSIONS.  ONE VERSION NEAR
      THE TOP OF THE HOUR CONTAINING PRELIMINARY DATA FROM ALBUQUERQUE
      AND OTHER STATIONS.  A FINAL VERSION WITH ADDITIONAL DATA IS
      ISSUED ABOUT 10 MINUTES AFTER THE HOUR.

NMZ501-503-504-510>518-100500-
NORTHWEST PLATEAU/NORTHCENTRAL MOUNTAINS

CITY           SKY/WX    TMP DP  RH WIND       PRES   REMARKS
FARMINGTON     PTCLDY    73  51  46 SE15      30.15R
LOS ALAMOS     MOCLDY    66  50  57 S8        30.33R
SANTA FE       MOCLDY    68  50  52 SE12      30.26R
TAOS           CLOUDY    64  45  48 N5        30.29S
ANGEL FIRE     FAIR      58  49  71 CALM      30.40R

$$
NMZ402-403-502-505>509-100500-
WESTCENTRAL MOUNTAINS/SOUTHWEST MOUNTAINS

CITY           SKY/WX    TMP DP  RH WIND       PRES   REMARKS
GALLUP         CLOUDY    63  56  78 CALM      30.26R
GRANTS         CLOUDY    66  49  55 E3        30.28R
SILVER CITY    CLOUDY    73  54  49 NW8       30.17R

$$
NMZ407-409-411-412-100500-
SOUTHERN DESERTS

CITY           SKY/WX    TMP DP  RH WIND       PRES   REMARKS
LORDSBURG      LGT RAIN  77  59  53 W12       30.07F
DEMING         MOCLDY    80  54  40 NW10      30.05R
LAS CRUCES     MOCLDY    83  47  27 CALM      30.06R
HOLLOMAN AFB   MOCLDY    84  47  27 SE7       30.02R
ALAMOGORDO     MOCLDY    82  45  26 SE10G18   30.04R
T OR C         MOCLDY    82  50  32 NW7       30.08R

$$
NMZ519>523-100500-
CENTRAL VALLEYS/CENTRAL HIGHLANDS

CITY           SKY/WX    TMP DP  RH WIND       PRES   REMARKS
ALBUQUERQUE    CLOUDY    77  52  41 VRB3      30.17R
DOUBLE EAGLE   MOCLDY    72  52  49 CALM      30.20R
MORIARTY ARPT  MOCLDY    66  52  59 W9        30.28R
CLINES CORNERS MOCLDY    64  48  56 SE9       30.29R
BELEN          FAIR      77  48  36 SE12      30.15R
SOCORRO        MOCLDY    82  48  31 CALM      30.11R

$$
NMZ524>526-539-540-100500-
SOUTHCENTRAL MOUNTAINS

CITY           SKY/WX    TMP DP  RH WIND       PRES   REMARKS
RUIDOSO        CLOUDY    72  43  35 SE9       30.31R

$$
NMZ527>531-100500-
NORTHEAST HIGHLANDS/NORTHEAST PLAINS

CITY           SKY/WX    TMP DP  RH WIND       PRES   REMARKS
LAS VEGAS      CLOUDY    65  51  60 SW12      30.31R
RATON            N/A    N/A N/A N/A MISG      30.22R
CLAYTON        MOCLDY    70  50  49 SE12      30.17R

$$
NMZ532>537-100500-
EASTCENTRAL PLAINS

CITY           SKY/WX    TMP DP  RH WIND       PRES   REMARKS
TUCUMCARI      CLOUDY    74  60  61 SE7       30.09S
CANNON AFB     MOCLDY    74  55  52 S8        30.12R
CLOVIS AIRPORT NOT AVBL

$$
NMZ028-029-538-100500-
SOUTHEAST PLAINS

CITY           SKY/WX    TMP DP  RH WIND       PRES   REMARKS
ROSWELL        MOCLDY    84  53  34 SE9       30.05R
ARTESIA        MOCLDY    84  54  34 SE14      30.05R
CARLSBAD       CLEAR     85  55  35 SE13      30.04R
HOBBS          CLEAR     81  55  41 SE8       30.10R


$$


USA.gov is the U.S. government's official web portal to all federal, state and local government web resources and services.